Temp
74 77 73 66 52 54 50 52 60 58 58 61 65 61 59 60 56 45 63 67 70 69 72 69 71 71 71 72 71 72 72 72 74 77 78 78 78 79 79 79 77 79 79 78 79 79 78 77 76
71 76 67 60 49 48 48 56 54 56 59 63 65 63 61 54 64 61 60 67 69 70 70 69 70 70 70 71 70 71 71 71 71 74 77 77 78 79 79 79 79 78 78 78 78 77 77 76 76
73 75 58 53 52 46 48 56 56 60 61 60 60 64 61 56 61 61 63 66 68 67 68 68 70 70 69 69 70 70 71 71 70 71 73 77 77 78 79 78 78 77 77 76 77 76 76 75 75
67 63 59 50 50 53 55 55 58 59 61 61 58 56 61 64 62 62 65 66 65 66 67 67 70 69 68 68 68 68 69 69 70 69 70 72 77 78 77 78 77 76 76 76 76 75 75 75 75
64 58 50 50 50 52 54 57 57 56 55 58 56 54 55 61 66 64 62 64 63 63 63 64 69 69 68 67 66 67 67 68 68 68 68 69 75 77 77 77 76 75 76 76 76 75 75 74 74
53 54 47 45 49 52 53 55 54 54 56 57 54 51 52 63 62 60 62 61 62 62 62 62 65 66 67 66 65 65 65 66 66 67 66 66 68 76 77 77 76 76 76 76 75 75 74 74 74
51 49 44 48 48 48 52 54 50 51 51 51 54 47 53 57 60 60 60 60 61 60 60 58 58 61 62 64 64 63 63 63 64 64 65 64 64 69 77 76 75 75 75 75 75 74 74 74 73
52 51 44 45 46 45 51 53 53 49 47 55 54 46 45 54 59 60 59 59 58 59 57 57 56 57 56 57 63 62 61 61 61 61 62 61 61 63 73 74 74 75 74 74 74 74 74 73 72
55 43 37 42 44 47 51 47 54 53 48 49 53 52 55 59 59 56 55 54 54 56 55 55 54 55 55 57 59 59 59 58 58 58 59 59 58 60 63 71 70 73 73 73 73 73 72 70 69
48 43 44 51 49 47 51 47 49 47 48 49 51 56 59 58 55 52 51 49 50 50 51 52 52 53 53 57 54 55 55 54 55 56 56 57 57 58 60 62 68 71 72 72 73 72 70 68 63
48 40 50 50 51 50 48 46 50 44 42 47 46 51 54 53 52 51 50 50 49 50 49 50 51 51 51 50 52 53 53 52 53 55 55 56 56 56 58 58 69 69 68 70 70 68 66 64 63
40 49 51 49 49 47 44 49 45 46 46 53 49 52 51 51 50 48 48 49 48 48 48 49 49 50 49 49 48 49 50 52 52 54 55 55 54 55 55 56 58 70 71 70 66 65 65 64 65
43 46 50 50 47 46 49 43 43 45 50 53 54 54 50 49 48 48 48 49 48 46 47 46 48 48 49 49 48 48 48 49 51 54 55 55 54 54 55 56 57 65 71 72 69 65 66 64 65
46 46 47 47 47 47 44 43 45 47 51 52 53 49 47 47 47 46 46 45 46 47 46 46 47 47 47 47 46 47 48 48 49 53 55 55 54 54 54 55 56 56 60 71 69 68 65 63 64
46 39 44 44 46 44 44 38 39 47 52 50 50 50 48 46 46 44 45 44 44 44 45 45 46 46 46 45 46 46 46 49 48 52 54 55 55 54 54 55 54 55 58 61 70 69 68 62 64
41 38 32 42 44 43 41 31 45 50 49 46 48 48 48 45 45 43 45 44 44 43 43 44 47 45 44 44 44 46 46 48 49 47 49 52 54 54 55 53 53 56 56 58 69 68 67 62 61
36 29 32 37 46 43 38 32 47 50 49 46 47 45 44 43 43 43 43 43 43 42 42 42 43 42 43 43 44 45 46 46 48 47 48 51 52 53 52 52 52 55 55 56 63 68 68 66 60
30 30 36 34 40 39 35 36 44 48 49 48 46 43 41 40 41 43 41 42 42 41 41 41 42 41 41 41 42 43 43 44 44 45 47 49 51 53 52 53 54 55 54 55 55 65 67 67 65
37 33 32 39 42 34 34 37 42 47 46 44 42 40 39 39 41 41 41 40 39 40 40 39 39 39 39 38 38 38 38 41 42 44 47 50 49 49 49 51 51 53 53 53 55 57 65 64 65
33 28 29 37 40 35 33 35 42 44 42 44 41 39 38 38 38 40 39 37 38 38 37 37 38 38 38 38 38 38 39 40 42 43 46 46 48 48 48 49 49 51 52 53 54 54 62 63 65
29 28 27 27 34 38 32 30 37 37 38 41 41 40 40 38 37 37 38 34 36 35 34 36 37 37 37 38 38 38 39 40 40 41 41 43 46 47 47 47 48 51 52 52 53 54 53 60 63
25 35 34 30 25 19 31 14 32 35 33 35 35 35 34 36 37 37 36 35 32 34 34 35 36 37 38 37 35 34 34 34 37 38 40 41 43 45 47 48 48 49 51 52 53 55 54 59 58
28 35 28 27 22 18 25 13 24 35 30 31 33 34 34 35 35 34 34 35 33 34 31 32 34 35 36 35 35 33 33 35 36 37 38 39 41 44 46 47 47 46 47 51 53 53 54 57 59
35 25 25 22 19 8 21 17 23 26 30 36 36 35 35 34 34 34 33 33 32 31 31 31 32 33 34 34 34 33 32 32 33 34 35 36 38 40 42 45 44 44 45 46 48 53 54 55 58
22 19 15 18 9 15 24 14 22 30 29 34 34 35 34 31 30 29 27 27 24 23 28 29 30 30 32 32 32 33 32 32 32 33 34 34 35 37 39 41 42 43 44 45 45 48 52 55 57
18 18 19 13 13 17 22 13 23 29 28 31 29 30 32 30 27 26 26 26 23 23 23 26 27 28 29 31 30 32 32 32 33 34 34 34 35 36 39 41 42 42 43 44 45 46 49 54 57
20 12 22 14 14 12 18 23 33 31 24 26 26 26 28 30 29 25 23 23 22 20 21 20 23 26 28 28 29 29 31 31 32 33 34 34 36 38 39 39 40 41 42 43 43 44 47 50 56
21 25 14 15 7 10 17 20 27 25 26 24 22 25 26 25 30 28 26 22 21 17 16 17 18 22 26 26 27 29 29 31 32 32 32 33 35 36 36 37 39 39 40 41 42 43 45 48 55
17 16 16 19 19 11 11 20 29 32 30 28 27 27 25 26 28 27 26 23 21 16 15 15 13 16 23 26 23 26 27 29 31 31 32 32 33 34 35 36 37 38 39 40 40 42 44 45 47
22 21 18 19 13 12 11 19 32 29 30 31 30 28 26 27 28 27 26 23 21 19 16 15 14 13 14 20 23 25 27 28 28 29 30 32 31 33 34 35 35 37 38 39 39 40 42 43 45
MSLP
1014.85 1014.26 1013.88 1013.66 1014.13 1013.69 1014.40 1015.28 1015.40 1016.18 1016.80 1017.63 1017.41 1017.40 1017.91 1018.52 1019.38 1021.60 1022.31 1022.45 1022.22 1021.85 1021.58 1021.64 1021.46 1020.99 1020.55 1019.98 1019.69 1019.29 1019.02 1018.74 1018.36 1017.99 1017.80 1017.57 1017.54 1017.57 1017.74 1017.85 1017.88 1017.86 1017.82 1017.89 1018.07 1018.15 1018.36 1018.60 1018.91
1015.17 1014.35 1014.15 1013.92 1014.36 1014.18 1015.30 1015.78 1016.60 1017.44 1018.06 1018.04 1017.92 1018.05 1018.34 1019.94 1020.53 1021.94 1022.49 1022.77 1022.46 1022.27 1022.00 1021.95 1021.65 1021.40 1021.09 1020.57 1020.16 1019.94 1019.65 1019.39 1019.11 1018.64 1018.15 1017.92 1017.81 1017.66 1017.82 1017.97 1018.14 1018.17 1018.22 1018.36 1018.46 1018.62 1018.92 1019.03 1019.03
1015.05 1014.50 1014.56 1014.29 1014.24 1015.24 1015.88 1016.68 1017.29 1017.98 1018.43 1018.78 1018.73 1018.94 1019.48 1020.77 1021.66 1022.41 1023.19 1023.09 1022.71 1022.63 1022.51 1022.37 1021.90 1021.70 1021.52 1021.18 1020.82 1020.47 1020.08 1019.84 1019.64 1019.29 1018.87 1018.19 1018.05 1017.85 1017.94 1018.11 1018.28 1018.42 1018.64 1018.82 1018.97 1019.16 1019.24 1019.40 1019.34
1015.22 1014.70 1014.76 1014.99 1015.50 1016.50 1016.77 1017.79 1018.25 1018.15 1018.63 1019.16 1019.81 1019.76 1020.80 1021.29 1022.07 1023.13 1023.26 1023.17 1022.98 1022.78 1022.89 1022.74 1022.25 1022.02 1021.82 1021.63 1021.26 1021.05 1020.77 1020.34 1019.91 1019.59 1019.26 1018.95 1018.16 1018.07 1018.03 1018.20 1018.34 1018.54 1018.68 1019.16 1019.39 1019.51 1019.62 1019.75 1019.79
1015.42 1015.26 1015.23 1015.41 1016.54 1017.39 1018.12 1018.71 1018.98 1018.95 1019.15 1019.80 1020.46 1020.49 1021.03 1022.05 1022.31 1023.02 1023.28 1023.27 1023.19 1023.12 1023.12 1023.11 1022.74 1022.35 1022.10 1022.02 1021.83 1021.50 1021.17 1020.82 1020.36 1020.05 1019.76 1019.24 1018.39 1018.16 1018.06 1018.22 1018.42 1018.56 1018.62 1019.15 1019.67 1019.82 1019.89 1020.10 1020.27
1016.08 1016.06 1016.07 1016.31 1017.21 1018.16 1018.78 1019.47 1019.66 1019.77 1019.95 1020.35 1021.08 1021.79 1021.68 1021.99 1022.56 1023.08 1023.20 1023.35 1023.38 1023.35 1023.30 1023.60 1023.33 1022.94 1022.56 1022.40 1022.32 1022.09 1021.76 1021.32 1020.83 1020.44 1020.09 1019.70 1019.18 1018.21 1018.13 1018.19 1018.39 1018.60 1018.61 1018.98 1019.69 1019.94 1020.12 1020.32 1020.42
1016.73 1016.87 1017.14 1016.97 1017.93 1018.69 1019.42 1020.28 1020.45 1020.83 1020.81 1021.38 1021.99 1021.98 1021.60 1022.26 1023.10 1023.32 1023.40 1023.28 1023.52 1023.75 1024.16 1024.37 1024.15 1023.65 1023.24 1022.84 1022.68 1022.62 1022.36 1021.88 1021.48 1020.92 1020.44 1020.24 1019.65 1018.80 1017.98 1017.90 1018.29 1018.52 1018.66 1019.02 1019.60 1020.01 1020.22 1020.45 1020.58
1017.67 1017.67 1018.14 1018.35 1018.81 1019.61 1020.49 1020.98 1021.40 1021.60 1021.57 1021.75 1022.02 1022.14 1022.13 1022.79 1023.18 1023.32 1023.43 1023.72 1023.87 1024.21 1024.72 1024.78 1024.56 1024.02 1023.61 1023.24 1023.10 1023.09 1022.94 1022.39 1022.04 1021.59 1020.84 1020.53 1020.30 1019.67 1018.18 1017.74 1018.07 1018.40 1018.64 1018.95 1019.50 1020.01 1020.30 1020.54 1020.74
1018.36 1018.75 1019.36 1019.55 1019.83 1020.32 1021.24 1021.54 1021.60 1022.02 1022.26 1022.33 1022.32 1022.49 1022.65 1022.78 1023.16 1023.61 1023.81 1024.16 1024.54 1025.08 1025.43 1025.10 1024.80 1024.36 1024.07 1023.57 1023.48 1023.37 1023.36 1022.87 1022.41 1021.75 1021.06 1020.89 1020.77 1020.52 1019.34 1018.05 1017.85 1018.23 1018.67 1018.99 1019.43 1019.86 1020.31 1020.69 1021.00
1018.99 1019.56 1020.37 1020.80 1020.96 1021.31 1021.69 1022.30 1022.55 1022.63 1022.52 1022.32 1022.23 1022.23 1022.61 1023.07 1023.60 1024.14 1024.54 1025.08 1025.28 1025.83 1025.35 1024.84 1024.95 1024.61 1024.51 1024.29 1024.20 1023.70 1023.46 1023.28 1022.87 1022.32 1021.66 1021.16 1021.25 1020.88 1020.29 1018.93 1017.69 1017.99 1018.49 1018.94 1019.42 1019.81 1020.35 1020.95 1021.29
1020.05 1020.72 1021.26 1021.80 1022.04 1022.51 1022.81 1023.02 1023.08 1023.11 1022.77 1022.38 1022.55 1022.86 1023.27 1023.78 1024.20 1024.74 1025.29 1025.60 1025.81 1025.78 1025.58 1025.73 1025.30 1025.01 1025.10 1025.06 1024.69 1024.41 1024.00 1023.53 1023.06 1022.70 1021.90 1020.84 1021.55 1021.38 1020.64 1019.78 1017.95 1018.08 1018.43 1018.92 1019.30 1019.81 1020.48 1020.98 1021.31
1021.30 1021.74 1021.97 1022.46 1022.89 1023.29 1023.61 1023.62 1023.60 1023.37 1022.89 1022.57 1022.68 1023.21 1023.73 1024.21 1024.62 1025.42 1025.92 1025.91 1026.02 1025.86 1025.99 1025.84 1025.63 1025.58 1025.57 1025.41 1025.14 1024.93 1024.53 1023.95 1023.32 1022.91 1022.52 1021.63 1020.89 1020.94 1021.04 1020.57 1020.33 1017.66 1018.11 1018.61 1019.24 1019.74 1020.16 1020.66 1021.06
1021.71 1022.28 1022.73 1023.05 1023.52 1023.85 1024.06 1024.15 1024.17 1023.24 1022.95 1022.64 1022.87 1023.25 1024.00 1024.27 1025.09 1025.84 1026.20 1026.16 1026.08 1026.11 1026.17 1026.12 1026.05 1025.78 1025.79 1025.74 1025.39 1024.99 1024.84 1024.35 1023.77 1022.98 1022.39 1022.06 1021.53 1021.38 1021.54 1020.30 1020.54 1018.67 1017.75 1018.04 1018.72 1019.47 1019.89 1020.27 1020.65
1022.38 1022.77 1022.96 1023.22 1023.54 1023.99 1024.19 1024.11 1024.07 1022.56 1022.37 1022.70 1023.02 1023.46 1023.92 1024.62 1025.31 1025.84 1026.12 1026.28 1026.49 1026.56 1026.47 1026.59 1026.43 1026.35 1026.29 1026.14 1025.72 1025.41 1024.93 1024.50 1024.06 1023.08 1022.45 1022.02 1021.15 1021.89 1021.58 1021.28 1021.17 1020.96 1019.37 1017.52 1018.10 1018.71 1019.60 1020.10 1020.36
1022.83 1022.89 1022.96 1023.33 1023.81 1024.15 1024.43 1023.72 1023.00 1022.48 1022.56 1022.81 1023.17 1023.46 1023.86 1024.65 1025.36 1025.96 1026.40 1026.68 1026.95 1026.99 1027.10 1026.91 1026.78 1026.74 1026.52 1026.30 1026.00 1025.47 1024.99 1024.57 1024.19 1023.50 1022.79 1022.57 1022.11 1021.16 1020.76 1020.62 1020.82 1020.77 1020.12 1018.72 1017.26 1018.37 1019.08 1019.85 1020.21
1022.67 1022.73 1022.88 1023.24 1023.87 1024.48 1024.77 1023.16 1021.94 1021.91 1022.34 1022.67 1022.97 1023.24 1023.76 1024.62 1025.42 1026.08 1026.55 1026.86 1026.95 1027.25 1027.17 1027.08 1027.04 1026.88 1026.81 1026.61 1026.26 1025.63 1025.08 1024.40 1023.94 1024.01 1023.56 1022.72 1021.77 1021.11 1021.29 1021.21 1021.68 1020.94 1020.34 1019.14 1017.20 1017.83 1018.75 1019.45 1020.18
1022.62 1022.51 1022.52 1023.11 1023.50 1024.15 1024.75 1023.34 1022.10 1021.64 1022.01 1022.21 1022.33 1022.88 1023.61 1024.65 1025.55 1026.21 1026.74 1027.08 1027.23 1027.32 1027.33 1027.49 1027.34 1027.20 1026.98 1026.69 1026.23 1025.76 1025.16 1024.42 1023.92 1023.99 1023.59 1022.63 1021.97 1021.43 1021.80 1021.29 1020.71 1020.08 1021.42 1019.62 1018.44 1017.35 1018.04 1018.93 1019.86
1022.68 1022.57 1022.51 1022.89 1023.42 1023.96 1024.16 1022.64 1022.09 1021.70 1021.58 1021.61 1021.68 1022.46 1023.66 1024.75 1025.71 1026.41 1026.98 1027.22 1027.44 1027.52 1027.69 1027.64 1027.43 1027.43 1027.28 1026.92 1026.42 1026.11 1025.75 1024.98 1024.47 1024.12 1023.79 1023.18 1022.90 1021.54 1021.51 1021.32 1021.34 1021.78 1019.85 1020.24 1019.32 1017.84 1017.73 1018.26 1019.22
1023.24 1023.12 1023.10 1023.06 1023.52 1023.93 1023.72 1022.46 1021.03 1020.78 1020.73 1020.95 1021.52 1022.40 1023.74 1024.87 1025.72 1026.55 1027.10 1027.31 1027.58 1027.70 1027.87 1027.95 1027.93 1027.78 1027.48 1027.15 1026.83 1026.64 1026.24 1025.69 1024.87 1024.38 1023.69 1023.60 1022.97 1022.42 1021.93 1021.18 1021.29 1020.92 1020.79 1020.23 1020.03 1018.86 1017.05 1018.23 1018.97
1023.92 1023.86 1023.69 1023.51 1024.04 1024.60 1023.95 1022.45 1020.28 1020.20 1020.05 1020.23 1021.26 1022.47 1023.85 1024.96 1025.83 1026.47 1027.04 1027.40 1027.69 1027.88 1027.90 1028.06 1028.04 1027.93 1027.71 1027.43 1027.26 1026.94 1026.40 1025.86 1025.30 1024.57 1024.29 1024.14 1023.99 1023.49 1023.07 1022.06 1021.35 1021.54 1020.99 1020.57 1019.68 1019.04 1018.08 1017.69 1018.22
1024.64 1024.75 1024.73 1025.07 1024.94 1024.32 1024.38 1022.63 1020.60 1020.59 1020.63 1020.90 1021.57 1022.67 1023.81 1024.80 1025.60 1026.27 1026.88 1027.36 1027.74 1027.95 1028.19 1028.27 1028.33 1028.09 1027.68 1027.44 1027.16 1026.76 1026.41 1025.93 1025.21 1025.08 1024.95 1024.79 1024.43 1023.95 1023.36 1022.74 1022.14 1021.07 1019.97 1020.32 1019.30 1019.62 1019.27 1017.35 1018.16
1025.77 1025.68 1025.79 1026.14 1026.50 1026.21 1025.47 1024.86 1022.19 1020.97 1021.21 1021.66 1022.47 1023.19 1024.07 1024.84 1025.57 1026.11 1026.77 1027.32 1027.71 1028.04 1028.20 1028.23 1028.08 1027.91 1027.59 1027.58 1027.32 1027.10 1026.87 1026.40 1025.95 1025.51 1025.14 1024.67 1024.18 1024.04 1022.67 1023.15 1021.98 1021.00 1020.65 1019.75 1020.07 1019.19 1018.90 1018.32 1017.24
1026.51 1026.83 1027.17 1027.41 1027.67 1027.76 1026.28 1026.55 1022.36 1021.60 1021.71 1021.67 1022.31 1023.26 1024.11 1024.71 1025.46 1026.20 1026.71 1027.29 1027.74 1027.96 1028.24 1028.17 1028.10 1028.06 1027.93 1027.68 1027.41 1027.26 1027.12 1026.77 1026.22 1025.79 1025.15 1024.97 1024.51 1024.19 1024.62 1023.35 1022.41 1021.54 1020.81 1019.90 1019.17 1019.39 1018.95 1018.81 1017.89
1027.24 1027.92 1028.27 1028.62 1028.60 1028.53 1026.35 1026.19 1023.41 1022.01 1020.79 1020.60 1021.57 1022.55 1023.60 1024.38 1025.18 1025.81 1026.59 1027.31 1027.83 1028.08 1028.33 1028.30 1028.20 1028.16 1028.02 1027.79 1027.54 1027.46 1027.23 1027.02 1026.52 1026.01 1025.18 1024.70 1024.38 1023.93 1023.58 1022.49 1022.34 1022.08 1021.16 1020.70 1020.43 1019.47 1018.67 1018.59 1018.04
1028.29 1028.77 1029.25 1029.40 1029.20 1027.69 1026.70 1026.81 1023.01 1021.18 1020.74 1020.66 1021.33 1022.20 1023.08 1023.92 1024.93 1025.88 1026.58 1027.38 1027.92 1028.26 1028.43 1028.36 1028.22 1028.19 1028.00 1027.88 1027.71 1027.51 1027.26 1026.99 1026.59 1026.16 1025.64 1024.91 1024.29 1024.07 1023.24 1022.99 1022.31 1021.58 1021.09 1020.97 1020.98 1019.61 1019.04 1018.71 1017.64
1028.83 1029.19 1029.01 1028.89 1028.65 1027.67 1027.04 1025.05 1021.64 1020.28 1020.25 1020.73 1021.12 1021.88 1022.97 1023.76 1024.59 1025.63 1026.27 1027.06 1027.74 1028.04 1028.27 1028.28 1028.30 1028.17 1027.97 1027.71 1027.73 1027.57 1027.26 1027.02 1026.72 1026.16 1025.59 1025.19 1024.60 1023.83 1023.39 1023.14 1022.43 1021.95 1021.63 1021.15 1020.67 1019.62 1019.12 1018.22 1018.01
1029.49 1029.42 1028.71 1028.72 1028.41 1027.73 1024.83 1022.35 1020.45 1020.06 1020.73 1021.16 1021.84 1022.48 1022.76 1023.44 1024.15 1025.00 1025.90 1026.66 1027.26 1027.68 1028.02 1028.22 1028.35 1028.17 1027.95 1027.89 1027.71 1027.53 1027.31 1027.05 1026.61 1026.23 1025.67 1025.09 1024.33 1023.61 1023.32 1022.97 1022.70 1022.26 1021.77 1021.34 1020.87 1019.46 1019.01 1018.53 1017.14
1029.10 1029.10 1029.11 1029.07 1028.71 1026.83 1023.30 1021.44 1019.93 1019.78 1020.23 1021.09 1022.02 1022.36 1022.86 1023.39 1023.85 1024.58 1025.35 1026.16 1026.81 1027.36 1027.98 1028.12 1028.25 1028.25 1028.09 1027.93 1027.69 1027.39 1027.25 1026.92 1026.53 1026.00 1025.38 1024.92 1024.41 1023.92 1023.31 1022.95 1022.27 1021.66 1021.36 1020.99 1020.38 1019.63 1019.30 1018.42 1016.90
1029.44 1029.03 1028.98 1028.68 1027.84 1026.58 1023.89 1019.62 1017.68 1017.87 1018.75 1020.01 1020.84 1021.48 1022.02 1022.56 1022.98 1023.69 1024.47 1025.45 1026.25 1027.03 1027.74 1028.27 1028.33 1028.35 1028.22 1028.03 1027.83 1027.60 1027.33 1026.95 1026.47 1026.04 1025.55 1025.09 1024.51 1024.19 1023.60 1022.85 1022.36 1021.59 1021.16 1020.82 1020.26 1019.56 1018.67 1018.15 1017.33
1027.54 1027.47 1027.52 1027.52 1026.76 1025.87 1024.61 1018.20 1016.78 1017.32 1018.02 1018.59 1019.56 1020.21 1020.93 1021.50 1022.09 1022.90 1023.62 1024.61 1025.64 1026.40 1027.09 1027.65 1028.05 1028.19 1028.02 1028.07 1027.93 1027.65 1027.39 1026.99 1026.60 1026.16 1025.61 1025.11 1024.63 1024.10 1023.46 1022.82 1022.11 1021.71 1021.11 1020.66 1020.03 1019.61 1019.23 1018.56 1017.25
Wind_Speed
13 4 5 3 2 1 5 5 4 7 5 5 6 6 7 11 7 5 7 8 11 10 12 16 24 26 27 28 28 28 30 29 26 15 9 7 8 7 5 4 3 6 8 10 15 17 18 18 17
10 6 2 2 1 3 4 4 13 10 6 6 6 8 8 6 11 7 8 10 11 12 12 14 23 24 25 27 28 26 27 28 29 25 15 9 7 8 7 5 5 8 10 12 16 16 16 17 18
7 6 2 2 2 5 5 10 8 10 8 7 4 4 4 4 9 5 8 10 11 11 12 13 21 23 24 25 26 27 26 26 27 27 27 14 10 9 9 8 7 10 12 13 15 14 15 15 16
4 2 1 1 11 7 10 9 6 4 9 8 7 1 6 6 6 7 9 10 10 10 11 14 20 21 22 24 25 26 25 25 26 28 27 27 13 11 10 9 8 12 15 13 13 13 13 12 12
2 2 1 4 8 6 8 7 4 6 4 8 6 5 5 7 9 11 9 9 9 8 8 10 20 21 21 22 24 24 24 24 24 26 27 27 18 14 12 10 11 12 16 16 12 13 13 12 10
1 1 0 3 7 6 7 6 4 3 6 4 4 5 3 8 14 9 8 7 6 7 10 13 18 22 21 22 21 24 23 23 23 24 27 28 28 16 12 13 12 13 15 17 13 13 13 11 10
3 3 4 5 7 5 5 5 7 7 5 7 3 3 1 14 11 8 7 6 8 10 11 12 12 16 21 21 19 22 22 23 22 22 25 28 29 24 15 15 15 15 15 16 15 13 13 12 10
2 2 3 6 3 4 5 4 4 5 3 4 2 1 3 8 10 8 9 8 9 10 8 9 10 11 12 11 17 19 22 22 22 19 23 25 25 27 12 18 17 17 16 16 15 13 12 11 9
1 5 3 2 2 4 6 3 4 2 4 4 4 4 6 8 9 7 6 7 7 8 6 7 10 11 12 12 12 12 16 19 20 17 19 14 12 17 16 14 14 16 16 16 15 14 12 10 7
5 4 4 6 6 5 5 3 7 5 7 6 5 6 6 8 7 8 8 7 7 7 7 10 9 10 10 10 11 7 6 6 8 10 9 8 11 13 18 21 14 16 17 16 16 14 14 9 3
5 4 4 5 7 5 5 7 4 4 6 4 4 8 7 7 6 8 8 6 6 5 6 7 9 9 7 7 7 6 6 4 5 7 9 9 7 8 9 10 6 8 11 7 9 9 5 6 4
6 5 3 4 4 2 2 5 7 9 9 8 1 3 4 7 6 7 7 7 6 6 6 7 8 7 7 5 4 6 7 7 5 6 6 4 5 7 9 8 14 8 7 8 7 5 7 6 7
5 4 3 5 3 4 6 8 8 14 11 7 4 3 7 5 7 5 7 6 8 7 7 8 8 8 9 9 5 5 6 7 9 7 6 3 5 6 8 10 11 10 9 9 9 6 6 6 7
4 2 2 2 3 3 5 5 4 6 4 11 6 5 1 5 4 5 6 7 8 8 8 8 8 7 8 8 8 7 5 7 8 9 3 5 5 5 5 7 9 11 10 8 9 9 8 5 6
4 2 6 6 4 2 6 8 13 10 5 5 6 7 4 3 4 5 6 5 6 5 6 7 7 7 7 8 8 7 5 6 6 8 10 5 4 5 5 3 7 9 11 15 11 9 8 5 5
3 0 1 5 6 4 4 8 6 9 9 8 9 6 4 4 4 4 5 5 6 6 7 7 8 8 8 9 8 6 5 6 4 5 7 11 8 6 4 5 7 8 10 11 8 11 9 6 6
3 1 2 5 7 2 5 7 8 9 8 10 10 8 5 5 4 3 4 5 5 6 7 6 7 7 9 9 8 8 7 4 5 5 6 11 11 8 8 5 6 9 9 9 8 11 11 10 6
2 1 2 4 7 5 8 20 15 16 15 16 8 7 8 5 3 5 2 4 5 4 5 6 6 7 8 6 7 6 7 5 5 5 5 9 9 10 8 5 2 4 8 9 9 7 10 11 9
2 2 4 5 7 1 8 18 19 13 11 10 7 8 7 7 6 4 1 2 3 3 4 6 6 7 6 5 6 7 8 7 4 6 7 7 10 13 11 8 8 10 8 9 12 13 14 9 9
1 2 4 2 5 2 7 20 27 15 8 7 9 9 9 8 7 6 3 1 2 3 6 6 6 6 5 3 5 5 6 5 6 4 8 8 9 10 10 10 8 7 7 8 9 10 6 8 12
3 3 1 2 8 9 7 10 2 1 4 5 5 7 8 9 8 7 6 2 0 4 4 4 4 5 5 6 5 5 6 5 4 6 5 6 9 7 9 10 9 10 8 7 7 9 13 10 10
1 6 4 1 5 3 9 8 9 4 6 7 6 6 7 7 6 5 5 5 1 2 3 4 5 5 6 6 5 6 6 7 6 7 6 7 9 9 9 9 10 9 7 10 6 6 8 11 14
2 4 4 3 2 6 4 4 12 4 6 11 11 11 9 10 10 9 8 6 2 1 2 3 4 4 5 6 6 4 5 6 7 7 10 8 6 8 9 8 9 10 9 11 9 7 8 10 8
8 3 2 0 2 2 8 7 8 6 7 5 13 10 12 10 10 8 7 6 5 2 2 3 4 4 5 5 6 5 6 7 8 8 8 7 6 7 9 11 9 9 9 10 12 11 8 11 8
5 1 3 1 3 6 7 3 12 5 4 4 9 12 11 10 9 9 9 7 6 5 3 3 2 4 5 5 5 6 6 7 7 9 7 10 8 6 9 12 11 9 10 10 13 11 11 9 9
5 4 5 7 3 1 4 9 12 6 1 3 4 6 9 11 9 9 9 8 7 7 5 3 3 4 5 5 6 5 6 4 5 7 8 7 8 8 9 10 11 12 11 11 12 10 9 11 10
5 4 2 2 1 2 7 8 10 6 4 4 6 5 9 11 12 11 8 8 8 7 7 5 3 4 5 5 5 5 5 6 6 8 8 7 9 9 10 11 11 11 12 12 13 9 12 13 11
2 1 5 2 2 7 7 7 11 5 10 9 8 13 9 5 9 9 11 10 7 5 5 4 4 4 4 5 4 6 7 7 7 7 9 10 10 11 12 12 12 11 11 12 13 11 12 13 12
3 3 2 0 3 6 5 7 6 8 9 12 13 13 11 12 11 9 9 8 8 6 6 5 5 4 4 4 4 5 7 8 7 8 8 9 12 11 12 12 12 13 12 12 12 14 14 16 17
2 7 7 5 7 4 1 14 7 6 8 9 10 10 9 11 11 9 9 10 10 9 7 8 6 5 5 4 4 5 7 7 7 8 9 10 11 12 12 12 13 12 13 12 12 14 13 15 17
Wind_Direction
299 312 289 318 34 176 115 54 90 88 86 9 358 11 68 34 15 84 98 18 357 6 14 25 12 12 14 14 13 15 13 8 5 304 263 206 172 163 153 169 183 132 107 103 106 103 103 97 94
303 276 263 276 232 139 86 119 72 59 44 336 56 335 44 79 35 81 40 6 357 4 14 15 11 13 14 14 14 11 14 9 6 357 289 247 209 175 176 176 172 122 113 111 107 104 108 110 103
283 306 320 295 354 44 96 58 80 113 89 45 25 338 23 79 42 79 28 11 0 4 20 3 10 11 13 14 12 11 9 10 6 2 356 270 230 200 190 179 168 133 119 116 110 113 113 108 108
334 280 299 331 96 33 76 70 25 67 115 97 358 93 100 41 83 69 31 14 6 8 17 3 9 10 15 10 13 10 7 8 10 4 353 352 242 218 200 182 173 146 130 119 119 120 113 111 115
300 310 289 86 62 87 62 53 28 11 49 50 15 27 61 84 118 54 38 10 15 5 20 5 7 9 13 13 9 8 7 6 7 10 0 349 298 225 204 188 166 155 133 126 134 130 124 121 128
3 87 355 151 97 74 83 26 7 340 43 43 57 349 94 124 40 22 27 16 20 19 30 10 8 7 9 6 12 5 5 2 5 9 8 352 339 244 209 197 168 164 141 139 148 142 137 136 135
41 3 359 49 109 142 72 4 30 13 306 61 25 315 294 57 36 20 10 11 36 36 40 18 0 6 1 359 10 5 1 358 356 7 13 1 352 322 209 197 170 163 148 146 152 153 148 145 145
19 29 104 358 129 95 71 2 74 0 12 39 51 283 331 13 31 9 11 25 44 37 28 23 5 4 0 343 12 5 360 358 351 358 15 9 355 336 258 205 176 166 155 150 150 152 156 148 157
264 58 78 76 105 83 98 344 85 117 274 287 303 318 305 29 17 20 5 28 43 29 13 24 8 3 4 342 4 3 1 355 350 351 14 20 5 345 324 264 179 167 158 152 153 152 143 132 154
38 91 60 14 51 30 45 25 334 338 315 298 251 213 60 35 351 22 7 15 25 6 1 14 10 3 5 356 343 345 1 347 344 342 1 26 8 354 342 339 184 165 159 158 157 155 126 125 157
355 96 116 76 71 33 357 325 281 273 294 248 14 356 7 6 13 24 357 10 11 12 20 6 5 358 0 356 347 344 339 337 336 342 345 12 3 359 345 350 224 171 156 159 149 133 140 163 170
98 67 42 88 75 83 278 319 307 267 243 299 175 322 3 288 45 22 346 354 358 13 11 10 3 357 355 335 346 334 331 335 329 321 326 355 27 5 4 342 333 179 167 163 148 155 157 181 164
89 139 144 113 125 236 262 261 261 271 276 277 271 221 254 37 37 15 337 343 356 11 7 4 0 354 354 333 332 333 331 327 326 308 309 12 54 23 345 356 339 310 177 171 165 160 170 178 156
60 108 171 144 218 238 258 266 292 270 243 226 234 217 240 46 2 355 339 359 352 359 6 357 350 355 343 338 336 327 317 322 321 311 315 22 26 12 6 349 334 335 333 190 169 165 172 179 150
108 223 166 197 199 279 33 270 229 238 192 190 214 245 168 83 356 7 4 358 354 5 350 360 334 354 341 338 327 317 316 318 321 343 340 334 23 344 341 342 353 320 321 317 163 160 170 149 143
226 86 138 117 157 130 83 278 207 194 204 209 229 244 190 98 58 28 359 2 9 353 352 355 349 340 342 338 322 311 309 304 328 346 325 320 323 320 335 10 318 327 331 338 198 163 165 147 147
214 257 164 142 189 130 167 270 308 157 200 227 227 206 133 112 125 104 12 2 11 357 357 346 344 346 346 330 320 311 328 328 348 349 326 337 331 354 325 311 311 351 300 332 308 163 163 159 150
113 145 116 236 183 190 238 258 259 255 243 257 226 170 135 148 181 84 357 357 16 359 351 0 355 346 344 332 325 340 328 329 344 321 327 323 316 335 308 296 338 282 346 335 343 245 161 160 157
4 338 276 298 97 16 242 273 276 263 252 249 201 152 143 160 131 126 229 357 350 13 17 10 348 348 345 337 344 336 328 323 322 319 311 1 345 342 333 337 355 343 322 330 322 316 159 157 153
214 276 271 17 89 310 263 282 278 279 256 218 168 152 161 163 157 173 196 163 15 352 35 3 357 342 333 343 333 315 315 304 294 296 1 348 344 333 325 321 310 293 299 306 321 342 253 166 168
229 237 310 260 331 261 302 280 250 159 107 46 102 148 161 174 181 164 181 192 118 40 18 357 343 331 330 356 326 326 327 316 327 344 330 333 321 324 322 318 310 309 316 293 329 323 331 180 176
246 11 59 346 18 284 81 283 298 186 181 172 192 187 174 174 170 164 172 205 117 68 25 346 349 345 340 341 341 336 324 327 331 324 320 329 331 314 329 312 318 312 293 297 287 305 318 275 167
145 44 57 26 317 23 286 96 271 122 218 205 195 193 193 194 177 190 187 171 184 106 1 330 340 346 338 340 336 333 324 319 317 317 320 321 328 331 314 324 334 338 331 321 289 292 298 302 222
106 71 81 86 162 8 217 138 276 196 214 178 184 185 187 185 173 172 159 167 202 97 317 325 336 332 339 339 333 334 328 318 323 317 322 325 327 328 326 335 336 325 326 327 315 310 286 314 231
67 64 321 317 358 229 110 62 244 244 244 178 176 181 178 169 171 173 175 197 176 195 232 273 333 318 328 330 341 330 320 318 316 323 321 324 322 327 332 328 324 323 327 321 311 309 307 288 252
178 163 181 234 241 262 100 235 247 204 198 144 117 162 164 173 176 183 188 193 191 197 204 228 279 305 323 338 333 326 322 318 314 313 316 313 312 316 319 315 326 318 316 312 305 306 294 281 276
181 194 194 35 303 49 229 275 302 189 204 188 205 200 205 186 187 191 188 194 191 192 198 193 231 286 307 326 319 322 321 317 310 312 309 308 312 313 318 320 315 311 309 308 304 303 295 287 269
130 197 65 337 269 259 255 239 237 228 219 204 211 222 221 222 199 189 194 193 194 187 192 181 198 237 286 298 318 316 315 310 310 310 313 315 317 318 317 316 313 314 310 308 307 299 293 289 276
140 227 198 18 198 209 297 252 221 213 179 191 214 216 207 206 209 202 186 183 182 170 182 195 197 211 249 295 312 305 309 312 312 311 315 317 315 315 312 313 310 309 306 305 303 297 297 293 297
210 202 162 167 239 225 168 261 232 166 163 178 206 205 201 202 203 194 183 170 175 182 185 196 198 190 207 228 276 294 300 308 313 313 315 314 312 310 310 310 309 305 302 298 299 297 295 291 287